When you browse on this site, cookies collect data to enhance your experience and personalize the content and advertising you see.
Visit our Privacy Policy to learn more. By continuing to use the site, you agree to this use of cookies and data.
  • In Sweden
  • List of Countries
  • For 7 days
  • Water Temperature
  • Satellite Maps
  • Weather Map
  • Weather Widgets
  • user-avatar
    Login

    Hourly Weather Pamporovo

    Today, 19 November, Monday

    Time Temperature Precipitation Wind Pressure Humidity
    00:00 -5°C° 1.8 mm 2 mps 619 mmHg 94%
    01:00 -4°C° 1.8 mm 2 mps 619 mmHg 94%
    02:00 -2°C° 0 mm 1 mps 618 mmHg 94%
    03:00 -1°C° 0.4 mm 1 mps 618 mmHg 94%
    04:00 -1°C° 0.4 mm 1 mps 618 mmHg 94%
    05:00 -1°C° 0.4 mm 1 mps 618 mmHg 93%
    06:00 -1°C° 0 mm 1 mps 619 mmHg 93%
    07:00 0°C° 0 mm 1 mps 619 mmHg 93%
    08:00 0°C° 0 mm 1 mps 619 mmHg 93%
    09:00 +1°C° 0 mm 1 mps 620 mmHg 90%
    10:00 +2°C° 0 mm 1 mps 621 mmHg 87%
    11:00 +3°C° 0 mm 1 mps 622 mmHg 84%
    12:00 +4°C° 0 mm 1 mps 622 mmHg 81%
    13:00 +5°C° 0 mm 1 mps 623 mmHg 79%
    14:00 +5°C° 0 mm 1 mps 623 mmHg 76%
    15:00 +4°C° 0 mm 1 mps 623 mmHg 79%
    16:00 +3°C° 0 mm 1 mps 622 mmHg 83%
    17:00 +2°C° 0 mm 1 mps 622 mmHg 86%
    18:00 +1°C° 0 mm 1 mps 622 mmHg 86%
    19:00 +1°C° 0 mm 1 mps 623 mmHg 87%
    20:00 0°C° 0 mm 1 mps 623 mmHg 87%
    21:00 0°C° 0 mm 1 mps 623 mmHg 86%
    22:00 0°C° 0 mm 1 mps 623 mmHg 86%
    23:00 -1°C° 0 mm 1 mps 624 mmHg 85%

    Tomorrow, 20 November, Tuesday

    Time Temperature Precipitation Wind Pressure Humidity
    00:00 -1°C° 0 mm 1 mps 624 mmHg 85%
    01:00 -1°C° 0 mm 1 mps 624 mmHg 85%
    02:00 -1°C° 0 mm 1 mps 624 mmHg 85%
    03:00 -1°C° 0 mm 1 mps 624 mmHg 86%
    04:00 -1°C° 0 mm 1 mps 624 mmHg 86%
    05:00 -1°C° 0 mm 1 mps 624 mmHg 87%
    06:00 -1°C° 0 mm 1 mps 624 mmHg 87%
    07:00 0°C° 0 mm 1 mps 625 mmHg 88%
    08:00 0°C° 0 mm 1 mps 625 mmHg 88%
    09:00 +1°C° 0.1 mm 1 mps 625 mmHg 87%
    10:00 +2°C° 0.1 mm 2 mps 626 mmHg 87%
    11:00 +3°C° 0.1 mm 2 mps 627 mmHg 86%
    12:00 +3°C° 0.1 mm 2 mps 626 mmHg 87%
    13:00 +3°C° 0.1 mm 2 mps 626 mmHg 88%
    14:00 +3°C° 0.1 mm 2 mps 625 mmHg 89%
    15:00 +3°C° 0.2 mm 2 mps 625 mmHg 91%
    16:00 +2°C° 0.2 mm 2 mps 625 mmHg 93%
    17:00 +2°C° 0.2 mm 2 mps 624 mmHg 95%
    18:00 +2°C° 0.2 mm 2 mps 624 mmHg 96%
    19:00 +3°C° 0.2 mm 1 mps 624 mmHg 96%
    20:00 +3°C° 0.2 mm 1 mps 624 mmHg 96%
    21:00 +3°C° 0.4 mm 1 mps 624 mmHg 96%
    22:00 +3°C° 0.4 mm 1 mps 624 mmHg 97%
    23:00 +4°C° 0.4 mm 1 mps 624 mmHg 97%

    Day after tomorrow, 21 November, Wednesday

    Time Temperature Precipitation Wind Pressure Humidity
    00:00 +4°C° 0.4 mm 1 mps 624 mmHg 97%
    01:00 +4°C° 0.4 mm 1 mps 624 mmHg 97%
    02:00 +4°C° 0.4 mm 1 mps 623 mmHg 97%
    03:00 +4°C° 0.6 mm 1 mps 623 mmHg 97%
    04:00 +4°C° 0.6 mm 1 mps 622 mmHg 97%
    05:00 +4°C° 0.6 mm 1 mps 622 mmHg 97%
    06:00 +3°C° 0.8 mm 1 mps 622 mmHg 96%
    07:00 +3°C° 0.8 mm 1 mps 622 mmHg 96%
    08:00 +3°C° 0.8 mm 1 mps 622 mmHg 95%
    09:00 +4°C° 0.8 mm 1 mps 622 mmHg 94%
    10:00 +5°C° 0.8 mm 1 mps 622 mmHg 94%
    11:00 +5°C° 0.8 mm 1 mps 622 mmHg 93%
    12:00 +5°C° 1.6 mm 1 mps 622 mmHg 93%
    13:00 +5°C° 1.6 mm 1 mps 622 mmHg 94%
    14:00 +4°C° 1.6 mm 1 mps 621 mmHg 94%
    15:00 +4°C° 2.4 mm 1 mps 621 mmHg 94%
    16:00 +2°C° 2.4 mm 2 mps 621 mmHg 93%
    17:00 +2°C° 2.4 mm 2 mps 621 mmHg 93%
    18:00 +2°C° 2.1 mm 2 mps 621 mmHg 93%
    19:00 +1°C° 2.1 mm 2 mps 622 mmHg 93%
    20:00 +1°C° 2.1 mm 2 mps 622 mmHg 93%
    21:00 +1°C° 1.3 mm 2 mps 622 mmHg 92%
    22:00 +1°C° 1.3 mm 2 mps 623 mmHg 92%
    23:00 -1°C° 1.3 mm 2 mps 623 mmHg 92%

    22 November, Thursday

    Time Temperature Precipitation Wind Pressure Humidity
    00:00 -1°C° 0.5 mm 2 mps 623 mmHg 92%
    01:00 -1°C° 0.5 mm 2 mps 623 mmHg 92%
    02:00 -1°C° 0.5 mm 2 mps 624 mmHg 92%
    03:00 -1°C° 0.3 mm 2 mps 624 mmHg 92%
    04:00 -1°C° 0.3 mm 2 mps 624 mmHg 91%
    05:00 -1°C° 0.3 mm 2 mps 624 mmHg 91%
    06:00 -1°C° 0.2 mm 2 mps 624 mmHg 91%
    07:00 -2°C° 0.2 mm 2 mps 625 mmHg 90%
    08:00 -2°C° 0.2 mm 2 mps 625 mmHg 90%
    09:00 -1°C° 0.2 mm 2 mps 625 mmHg 89%
    10:00 -1°C° 0.2 mm 2 mps 626 mmHg 88%
    11:00 -1°C° 0.2 mm 2 mps 626 mmHg 88%
    12:00 -1°C° 0.3 mm 2 mps 626 mmHg 87%
    13:00 -1°C° 0.3 mm 2 mps 626 mmHg 87%
    14:00 -1°C° 0.3 mm 2 mps 626 mmHg 86%
    15:00 -1°C° 0.3 mm 2 mps 626 mmHg 88%
    16:00 -2°C° 0.3 mm 2 mps 627 mmHg 89%
    17:00 -2°C° 0.3 mm 2 mps 627 mmHg 91%
    18:00 0°C° 0.3 mm 1 mps 627 mmHg 91%
    19:00 0°C° 0.3 mm 1 mps 627 mmHg 91%
    20:00 0°C° 0.3 mm 1 mps 627 mmHg 91%
    21:00 -1°C° 0.2 mm 1 mps 627 mmHg 91%
    22:00 -1°C° 0.2 mm 1 mps 628 mmHg 91%
    23:00 -1°C° 0.2 mm 1 mps 628 mmHg 92%

    23 November, Friday

    Time Temperature Precipitation Wind Pressure Humidity
    00:00 -1°C° 0.1 mm 1 mps 628 mmHg 92%
    01:00 -1°C° 0.1 mm 1 mps 628 mmHg 92%
    02:00 -2°C° 0.1 mm 1 mps 628 mmHg 92%
    03:00 -2°C° 0 mm 1 mps 628 mmHg 91%
    04:00 -2°C° 0 mm 1 mps 628 mmHg 91%
    05:00 -2°C° 0 mm 1 mps 628 mmHg 91%
    06:00 -2°C° 0 mm 1 mps 628 mmHg 91%
    07:00 -2°C° 0 mm 1 mps 629 mmHg 90%
    08:00 -2°C° 0 mm 1 mps 629 mmHg 90%
    09:00 -1°C° 0 mm 1 mps 629 mmHg 86%
    10:00 0°C° 0 mm 1 mps 630 mmHg 82%
    11:00 0°C° 0 mm 1 mps 631 mmHg 78%
    12:00 +1°C° 0 mm 1 mps 631 mmHg 77%
    13:00 +1°C° 0 mm 1 mps 630 mmHg 75%
    14:00 +1°C° 0 mm 1 mps 630 mmHg 73%
    15:00 0°C° 0 mm 1 mps 630 mmHg 76%
    16:00 0°C° 0 mm 1 mps 630 mmHg 78%
    17:00 -1°C° 0 mm 1 mps 630 mmHg 81%
    18:00 -2°C° 0 mm 1 mps 630 mmHg 82%
    19:00 -2°C° 0 mm 1 mps 630 mmHg 83%
    20:00 -3°C° 0 mm 1 mps 630 mmHg 83%
    21:00 -3°C° 0 mm 1 mps 630 mmHg 83%
    22:00 -4°C° 0 mm 1 mps 630 mmHg 82%
    23:00 -4°C° 0 mm 1 mps 630 mmHg 82%

    24 November, Saturday

    Time Temperature Precipitation Wind Pressure Humidity
    00:00 -4°C° 0 mm 1 mps 630 mmHg 81%
    01:00 -6°C° 0 mm 1 mps 629 mmHg 80%
    02:00 -6°C° 0 mm 1 mps 629 mmHg 79%
    03:00 -6°C° 0 mm 1 mps 629 mmHg 77%
    04:00 -6°C° 0 mm 1 mps 629 mmHg 76%
    05:00 -6°C° 0 mm 1 mps 629 mmHg 74%
    06:00 -6°C° 0 mm 1 mps 629 mmHg 72%
    07:00 -6°C° 0 mm 1 mps 629 mmHg 70%
    08:00 -6°C° 0 mm 1 mps 629 mmHg 67%
    09:00 -3°C° 0 mm 1 mps 630 mmHg 61%
    10:00 -1°C° 0 mm 1 mps 631 mmHg 55%
    11:00 +1°C° 0 mm 1 mps 631 mmHg 49%
    12:00 +2°C° 0 mm 1 mps 631 mmHg 50%
    13:00 +2°C° 0 mm 1 mps 631 mmHg 50%
    14:00 +3°C° 0 mm 1 mps 630 mmHg 50%
    15:00 +1°C° 0 mm 1 mps 630 mmHg 57%
    16:00 0°C° 0 mm 1 mps 629 mmHg 65%
    17:00 -2°C° 0 mm 1 mps 628 mmHg 72%
    18:00 -2°C° 0 mm 1 mps 628 mmHg 73%
    19:00 -3°C° 0 mm 1 mps 628 mmHg 74%
    20:00 -3°C° 0 mm 1 mps 628 mmHg 75%
    21:00 -3°C° 0 mm 1 mps 628 mmHg 74%
    22:00 -3°C° 0 mm 1 mps 628 mmHg 74%
    23:00 -3°C° 0 mm 1 mps 628 mmHg 73%
    Show more